World > North America > United States > Arizona
Hourly Weather in Golden Valley, ArizonaGolden Valley, Arizona Hourly Weather

Golden Valley, AZ Hourly Weather

Hourly Weather Golden Valley, ArizonaHourly Weather in Golden Valley, AZ
Lat: 35.22N, Lon: 114.22W  ICAO: KIGM
Web Search

If you are on your PC, you can easily pass this page to your phone by scanning the QR Code near the bottom with your camera.

Feedback

Golden Valley Hourly Weather

36 Hour Weather Scroll   °F Click to change Golden Valley hourly weather to Imperial units.Click to change Golden Valley hourly weather to Metric units. °C
Currently, Clear, temperature is 80°F27°C, dew point 50°F10°C, humidity 35%. Wind direction is SSW at 10 mph16 km/h with visibility of 10.00 mi16 km. Barometric pressure is 29.88 in1012 mb.

Sep 26
1:00 PM

Sep 26
2:00 PM

Sep 26
3:00 PM

Sep 26
4:00 PM

Sep 26
5:00 PM

Sep 26
6:00 PM

Sep 26
7:00 PM

Sep 26
8:00 PM

Sep 26
9:00 PM

Sep 26
10:00 PM

Sep 26
11:00 PM

Sep 27
MIDNIGHT

Sep 27
1:00 AM

Sep 27
2:00 AM

Sep 27
3:00 AM

Sep 27
4:00 AM

Sep 27
5:00 AM

Sep 27
6:00 AM

Sep 27
7:00 AM

Sep 27
8:00 AM

Sep 27
9:00 AM

Sep 27
10:00 AM

Sep 27
11:00 AM

Sep 27
NOON

Sep 27
1:00 PM

Sep 27
2:00 PM

Sep 27
3:00 PM

Sep 27
4:00 PM

Sep 27
5:00 PM

Sep 27
6:00 PM

Sep 27
7:00 PM

Sep 27
8:00 PM

Sep 27
9:00 PM

Sep 27
10:00 PM

Sep 27
11:00 PM

Sep 28
MIDNIGHT
Mostly Cloudy Cloudy Cloudy Cloudy Cloudy Cloudy Cloudy Cloudy Cloudy Cloudy Cloudy Cloudy Cloudy Partly Cloudy Partly Cloudy Partly Cloudy Partly Cloudy Partly Cloudy Partly Cloudy Partly Cloudy Partly Cloudy Partly Cloudy Clear Clear Clear Partly Cloudy Partly Cloudy Partly Cloudy Mostly Cloudy Mostly Cloudy Mostly Cloudy Mostly Cloudy Mostly Cloudy Mostly Cloudy Partly Cloudy Partly Cloudy
Mostly Cloudy Cloudy Cloudy Cloudy Cloudy Cloudy Cloudy Cloudy Cloudy Cloudy Cloudy Cloudy Cloudy Partly Cloudy Partly Cloudy Partly Cloudy Partly Cloudy Partly Cloudy Partly Cloudy Partly Cloudy Partly Cloudy Partly Cloudy Clear Clear Clear Partly Cloudy Partly Cloudy Partly Cloudy Mostly Cloudy Mostly Cloudy Mostly Cloudy Mostly Cloudy Mostly Cloudy Mostly Cloudy Partly Cloudy Partly Cloudy
77°F25°C 78°F26°C 78°F26°C 77°F25°C 75°F24°C 74°F23°C 71°F22°C 69°F21°C 66°F19°C 65°F18°C 64°F18°C 63°F17°C 63°F17°C 62°F17°C 62°F17°C 62°F17°C 61°F16°C 61°F16°C 62°F17°C 63°F17°C 64°F18°C 68°F20°C 72°F22°C 76°F24°C 77°F25°C 79°F26°C 80°F27°C 80°F27°C 79°F26°C 79°F26°C 76°F24°C 72°F22°C 69°F21°C 68°F20°C 68°F20°C 67°F19°C
Rain Rain Rain Rain Rain Rain Rain Rain Rain Rain Rain Rain - - - - - - - - - - - - - - - - - - - - - - - -
24% 24% 24% 24% 24% 24% 39% 39% 39% 39% 39% 39% 6% 6% 6% 6% 6% 6% 4% 4% 4% 4% 4% 4% 8% 8% 8% 8% 8% 8% 16% 16% 16% 16% 16% 16%
50°F10°C 50°F10°C 51°F11°C 52°F11°C 53°F12°C 54°F12°C 56°F13°C 57°F14°C 59°F15°C 59°F15°C 60°F16°C 60°F16°C 60°F16°C 59°F15°C 59°F15°C 59°F15°C 58°F14°C 58°F14°C 58°F14°C 59°F15°C 59°F15°C 58°F14°C 58°F14°C 57°F14°C 56°F13°C 55°F13°C 54°F12°C 54°F12°C 53°F12°C 53°F12°C 54°F12°C 55°F13°C 56°F13°C 56°F13°C 56°F13°C 56°F13°C
39% 38% 39% 42% 46% 50% 59% 66% 78% 81% 87% 90% 90% 90% 90% 90% 90% 90% 87% 87% 84% 70% 61% 52% 48% 44% 41% 41% 41% 41% 46% 55% 63% 66% 66% 68%
SW SW SW SSE S SSE SE SE SE SE SSE S SSE SSE SE SE SE SE SE SSE S S SW SW SW SW SW SW SW SW SSE S S SSE SSE SE
12 mph 15 mph 15 mph 15 mph 15 mph 15 mph 15 mph 18 mph 18 mph 18 mph 6 mph 6 mph 6 mph 8 mph 8 mph 8 mph 7 mph 7 mph 7 mph 5 mph 5 mph 5 mph 10 mph 10 mph 10 mph 11 mph 11 mph 11 mph 13 mph 13 mph 13 mph 11 mph 11 mph 11 mph 7 mph 7 mph
10 mi16 km 10 mi16 km 10 mi16 km 10 mi16 km 10 mi16 km 10 mi16 km 10 mi16 km 10 mi16 km 10 mi16 km 10 mi16 km 10 mi16 km 10 mi16 km 10 mi16 km 10 mi16 km 10 mi16 km 10 mi16 km 10 mi16 km 10 mi16 km 10 mi16 km 10 mi16 km 10 mi16 km 10 mi16 km 10 mi16 km 10 mi16 km 10 mi16 km 10 mi16 km 10 mi16 km 10 mi16 km 10 mi16 km 10 mi16 km 10 mi16 km 10 mi16 km 10 mi16 km 10 mi16 km 10 mi16 km 10 mi16 km
Hour (MDT)
Weather
Clouds
Temperature
Precip. Type
POP
Dewpoint
Humidity
Wind Direction
Wind Speed
Visibility
POP = Probability of Precipitation. ** Indicates missing data/values from model statistics.

24 Hour Forecast

Today - Mostly sunny. Slight chance of thunderstorms in the morning, then chance of thunderstorms in the afternoon. Highs 81 to 84. South winds 5 to 15 mph. Chance of thunderstorms 50%.
Tonight - Mostly cloudy in the evening then clearing. A 20% chance of thunderstorms. Lows 62 to 65. Southeast winds up to 10 mph.

48 Hour Forecast API Feed


Sun, Sep 26
Noon

Sun, Sep 26
1:00 pm

Sun, Sep 26
2:00 pm

Sun, Sep 26
3:00 pm

Sun, Sep 26
4:00 pm

Sun, Sep 26
5:00 pm

Sun, Sep 26
6:00 pm

Sun, Sep 26
7:00 pm

Sun, Sep 26
8:00 pm

Sun, Sep 26
9:00 pm

Sun, Sep 26
10:00 pm

Sun, Sep 26
11:00 pm

Mon, Sep 27
Midnight

Mon, Sep 27
1:00 am

Mon, Sep 27
2:00 am

Mon, Sep 27
3:00 am

Mon, Sep 27
4:00 am

Mon, Sep 27
5:00 am

Mon, Sep 27
6:00 am

Mon, Sep 27
7:00 am

Mon, Sep 27
8:00 am

Mon, Sep 27
9:00 am

Mon, Sep 27
10:00 am

Mon, Sep 27
11:00 am

Mon, Sep 27
Noon

Mon, Sep 27
1:00 pm

Mon, Sep 27
2:00 pm

Mon, Sep 27
3:00 pm

Mon, Sep 27
4:00 pm

Mon, Sep 27
5:00 pm

Mon, Sep 27
6:00 pm

Mon, Sep 27
7:00 pm

Mon, Sep 27
8:00 pm

Mon, Sep 27
9:00 pm

Mon, Sep 27
10:00 pm

Mon, Sep 27
11:00 pm

Tue, Sep 28
Midnight

Tue, Sep 28
1:00 am

Tue, Sep 28
2:00 am

Tue, Sep 28
3:00 am

Tue, Sep 28
4:00 am

Tue, Sep 28
5:00 am

Tue, Sep 28
6:00 am

Tue, Sep 28
7:00 am

Tue, Sep 28
8:00 am

Tue, Sep 28
9:00 am

Tue, Sep 28
10:00 am

Tue, Sep 28
11:00 am
Partly CloudyPartly CloudyPartly CloudyPartly CloudyPartly CloudyPartly CloudyPartly CloudyPartly CloudyPartly CloudyPartly CloudyPartly CloudyPartly CloudyPartly CloudyPartly CloudyPartly CloudyPartly CloudyPartly CloudyPartly CloudyPartly CloudyPartly CloudyPartly CloudyPartly CloudyPartly CloudyPartly CloudyPartly CloudyPartly CloudyPartly CloudyPartly CloudyPartly CloudyPartly CloudyPartly CloudyPartly CloudyPartly CloudyPartly CloudyPartly CloudyPartly CloudyPartly CloudyPartly CloudyPartly CloudyPartly CloudyPartly CloudyPartly CloudyPartly CloudyPartly CloudyPartly CloudyPartly CloudyPartly CloudyPartly Cloudy
Partly cloudy Partly cloudy Partly cloudy Partly cloudy Partly cloudy Partly cloudy Partly cloudy Partly cloudy Partly cloudy Partly cloudy Partly cloudy Partly cloudy Partly cloudy Partly cloudy Partly cloudy Partly cloudy Partly cloudy Partly cloudy Partly cloudy Partly cloudy Partly cloudy Partly cloudy Partly cloudy Partly cloudy Partly cloudy Partly cloudy Partly cloudy Partly cloudy Partly cloudy Partly cloudy Partly cloudy Partly cloudy Partly cloudy Partly cloudy Partly cloudy Partly cloudy Partly cloudy Partly cloudy Partly cloudy Partly cloudy Partly cloudy Partly cloudy Partly cloudy Partly cloudy Partly cloudy Partly cloudy Partly cloudy Partly cloudy
85°F
29°C
85°F
30°C
83°F
29°C
84°F
29°C
84°F
29°C
82°F
28°C
80°F
26°C
78°F
25°C
76°F
25°C
75°F
24°C
74°F
23°C
73°F
23°C
72°F
22°C
70°F
21°C
69°F
21°C
68°F
20°C
68°F
20°C
67°F
20°C
66°F
19°C
65°F
19°C
66°F
19°C
71°F
22°C
73°F
23°C
76°F
25°C
81°F
27°C
82°F
28°C
81°F
27°C
82°F
28°C
82°F
28°C
82°F
28°C
82°F
28°C
80°F
27°C
78°F
26°C
77°F
25°C
75°F
24°C
74°F
24°C
74°F
23°C
73°F
23°C
72°F
22°C
71°F
22°C
70°F
21°C
69°F
21°C
68°F
20°C
67°F
20°C
68°F
20°C
72°F
22°C
75°F
24°C
81°F
27°C
53°F
12°C
53°F
12°C
51°F
10°C
51°F
10°C
51°F
11°C
51°F
11°C
54°F
12°C
53°F
12°C
54°F
12°C
55°F
13°C
55°F
13°C
55°F
13°C
55°F
13°C
55°F
13°C
54°F
12°C
53°F
12°C
53°F
12°C
53°F
11°C
52°F
11°C
52°F
11°C
53°F
12°C
54°F
12°C
55°F
13°C
55°F
13°C
57°F
14°C
56°F
13°C
53°F
12°C
53°F
11°C
52°F
11°C
51°F
11°C
52°F
11°C
51°F
11°C
51°F
11°C
51°F
11°C
51°F
10°C
51°F
11°C
51°F
10°C
51°F
10°C
50°F
10°C
49°F
10°C
49°F
10°C
50°F
10°C
50°F
10°C
50°F
10°C
52°F
11°C
54°F
12°C
52°F
11°C
54°F
12°C
29.94 in
1014 mb
29.91 in
1013 mb
29.91 in
1013 mb
29.88 in
1012 mb
29.85 in
1011 mb
29.85 in
1011 mb
29.85 in
1011 mb
29.88 in
1012 mb
29.91 in
1013 mb
29.91 in
1013 mb
29.91 in
1013 mb
29.94 in
1014 mb
29.94 in
1014 mb
29.94 in
1014 mb
29.91 in
1013 mb
29.91 in
1013 mb
29.91 in
1013 mb
29.91 in
1013 mb
29.91 in
1013 mb
29.94 in
1014 mb
29.94 in
1014 mb
29.94 in
1014 mb
29.94 in
1014 mb
29.94 in
1014 mb
29.94 in
1014 mb
29.91 in
1013 mb
29.88 in
1012 mb
29.85 in
1011 mb
29.85 in
1011 mb
29.83 in
1010 mb
29.83 in
1010 mb
29.8 in
1009 mb
29.83 in
1010 mb
29.83 in
1010 mb
29.85 in
1011 mb
29.85 in
1011 mb
29.85 in
1011 mb
29.83 in
1010 mb
29.83 in
1010 mb
29.83 in
1010 mb
29.8 in
1009 mb
29.83 in
1010 mb
29.83 in
1010 mb
29.83 in
1010 mb
29.83 in
1010 mb
29.83 in
1010 mb
29.83 in
1010 mb
29.83 in
1010 mb
34%33%32%32%32%35%41%43%46%49%52%55%56%58%59%59%59%59%60%62%61%56%52%47%44%40%38%36%35%35%35%37%39%41%42%44%45%46%46%46%48%50%53%55%57%52%44%39%
SSWSWSSWSSWSSWSSSSSESESEESESESESSWSESSESSESSSSESSSSWSSWSSWSSWSSWSSWSSWSSWSSWSSSESSESSESSESSESSESSESSESSESSESSESSESSESS
12 mph
19 km/h
13 mph
21 km/h
12 mph
19 km/h
14 mph
22 km/h
15 mph
24 km/h
17 mph
27 km/h
17 mph
28 km/h
14 mph
23 km/h
11 mph
18 km/h
8 mph
13 km/h
5 mph
8 km/h
4 mph
7 km/h
4 mph
6 km/h
2 mph
4 km/h
2 mph
4 km/h
4 mph
6 km/h
4 mph
7 km/h
6 mph
9 km/h
6 mph
10 km/h
6 mph
10 km/h
6 mph
10 km/h
8 mph
13 km/h
9 mph
15 km/h
10 mph
16 km/h
11 mph
17 km/h
13 mph
20 km/h
14 mph
22 km/h
13 mph
22 km/h
14 mph
22 km/h
14 mph
22 km/h
14 mph
23 km/h
14 mph
22 km/h
10 mph
17 km/h
9 mph
14 km/h
9 mph
14 km/h
9 mph
15 km/h
11 mph
17 km/h
10 mph
15 km/h
10 mph
16 km/h
11 mph
17 km/h
11 mph
18 km/h
11 mph
18 km/h
10 mph
15 km/h
9 mph
14 km/h
9 mph
14 km/h
13 mph
21 km/h
18 mph
29 km/h
20 mph
32 km/h
0%0%0%0%0%0%0%0%0%0%0%0%0%0%0%0%0%0%0%0%0%0%0%0%0%0%0%0%0%0%0%0%0%0%0%0%0%0%0%0%0%0%0%0%0%0%0%0%
6 mi
10 km
6 mi
10 km
6 mi
10 km
6 mi
10 km
6 mi
10 km
6 mi
10 km
6 mi
10 km
6 mi
10 km
6 mi
10 km
6 mi
10 km
6 mi
10 km
6 mi
10 km
6 mi
10 km
6 mi
10 km
6 mi
10 km
6 mi
10 km
6 mi
10 km
6 mi
10 km
6 mi
10 km
6 mi
10 km
6 mi
10 km
6 mi
10 km
6 mi
10 km
6 mi
10 km
6 mi
10 km
6 mi
10 km
6 mi
10 km
6 mi
10 km
6 mi
10 km
6 mi
10 km
6 mi
10 km
6 mi
10 km
6 mi
10 km
6 mi
10 km
6 mi
10 km
6 mi
10 km
6 mi
10 km
6 mi
10 km
6 mi
10 km
6 mi
10 km
6 mi
10 km
6 mi
10 km
6 mi
10 km
6 mi
10 km
6 mi
10 km
6 mi
10 km
6 mi
10 km
6 mi
10 km

Day/Time
Weather
Condition
Temperature
Dew Point
Pressure
Humidity
Wind Direction
Wind Speed
Prob Precip %
Visibility
Prob Precip % = Probability of Precipitation.